sat.trackr.live / text

‹ back to catalog

O3B MPOWER F4

NORAD 56367 · 2023-059A

PAYLOAD ACTIVE UNKNOWN

§ Identity

Operator
Country
O3B
Launch date
2023-04-28
Launch site
AFETR
Launch vehicle
Mass (kg)
RCS (m²)

Purposes: comms

External: N2YO · Heavens-Above · Gunter

§ Orbital elements

Epoch: 2026-09-19T22:08:27.818880Z

Period
287.93 min
Inclination
0.0596°
Eccentricity
0.0007696
Mean motion
5.00115050 rev/d
Perigee alt
8,054.8 km
Apogee alt
8,077.0 km
Semi-major
14,444.0 km
B*
0.0000e+0
RAAN
342.6109°
Arg perigee
192.7717°
Mean anomaly
184.6267°
Rev number
6,334

§ Raw data

O3B MPOWER F41 56367U 23059A   26262.92254420 -.00000027  00000+0  00000+0 0  99902 56367   0.0596 342.6109 0007696 192.7717 184.6267  5.00115050 63343

JSON: /api/v1/satellites/56367 · /tle

For live sub-satellite position, see the globe view (requires WebGL).

§ Visibility from observer

Set your observer location to see the next 7 days of passes ≥ 10°. The values pass through the URL so the page stays shareable.

No JS? Fill the form by hand. The geolocation button needs JavaScript.